星链-2443 (STARLINK-2443 )

导读 | 豆包AI

STARLINK-2443是由美国于北京时间2021年4月7日发射的星链网络卫星,属于SpaceX星链计划低轨互联网星座组网卫星。星链计划旨在通过全球大量低轨卫星为全球提供高速互联网接入服务,STARLINK-2443发射后成功进入预定轨道,参与后续组网运行,推进星座部署进程。

基本信息
目录编号:
48107
目录名称:
STARLINK-2443
国际标识:
2021-027R
轨道中心:
EARTH
卫星名称:
星链-2443
卫星全名:
星链-2443 (STARLINK-2443 )
卫星状态:
在轨 (已飞行1802 天)
发射日期:
2021-04-07 UTC
国别 :
美国 (US)
星等 :
--
轨道信息
数据来源 国际轨道数据
星历时间: 2026-03-14T08:00:02+0800
15小时前
查看轨道信息
半长轴: 6899.475km
偏心率: 0.0002051
轨道倾角: 53.090°
近地点辐角 85.400°
升交点赤经 132.139°
平近点角 64.401°
近地点: 519.922km
远地点: 522.754km
周期: 95.057分钟
每日圈数: 15.148818
详细信息
固有亮度:
5
最大亮度:
2.5
卫星平台:
Starlink V1.0
覆盖范围:
全球
运营商:
太空探索技术公司
运营商所在国:
美国
制造商(研发单位):
太空探索技术公司
制造商所在国:
美国
使用方式:
暂无
卫星简介
星链(Starlink)计划是由太空探索技术公司(SpaceX)提出的一个巨型低轨卫星互联网星座项目,计划在2019年至2024年间在太空搭建由约1.2万颗卫星组成的“星链”网络,其中1584颗将部署在地球上空550千米处的近地轨道,并从2020年开始工作。该卫星仍在工作。
2D轨道图
3D轨道图
轨道高度分析图
轨道倾角分析图
轨道综合分析图
查看轨道综合分析图